Regional Weather Roundup
Issued by NWS

Home | Current Version | Previous Version | Text Only | Print | Product List | Glossary Off
Versions: 1 2 3 4 5 6 7 8 9 10 11 12 13 14 15 16 17 18 19 20 21 22 23 24 25 26 27 28 29 30 31 32 33 34 35 36 37 38 39 40 41 42 43 44 45 46 47 48 49 50

000
ASUS44 KMEG 291400
RWRTN
TENNESSEE HOURLY STATE WEATHER ROUNDUP
NATIONAL WEATHER SERVICE MEMPHIS TN
900 AM CDT TUE JUL 29 2014

TNZ002-004-019-021-049-052-054-088>092-291500-
WEST TENNESSEE

CITY           SKY/WX    TMP DP  RH WIND       PRES   REMARKS
MEMPHIS INTL   MOSUNNY   73  56  54 NE8       30.14R
NWS MEMPHIS      N/A     71 N/A N/A MISG        N/A
JACKSON        SUNNY     69  55  60 NE6       30.13R
DYERSBURG      SUNNY     70  52  52 N6        30.15R
UNION CITY     SUNNY     66  55  68 N5        30.13R
PARIS          SUNNY     64  54  68 NE7       30.14R
LEXINGTON      SUNNY     66  54  63 N6        30.12R
SAVANNAH       SUNNY     70  57  64 NE7       30.13R
$$

TNZ008-025-027-028-033-062-065-066-291500-
NORTH MIDDLE TENNESSEE

CITY           SKY/WX    TMP DP  RH WIND       PRES   REMARKS
NASHVILLE      SUNNY     67  50  54 N13       30.11R
CLARKSVILLE    SUNNY     69  51  52 N7        30.12R
COOKEVILLE     MOSUNNY   63  55  77 N6        30.08R
CROSSVILLE     MOSUNNY   66  57  72 N7        30.08R
$$

TNZ061-075-076-078-094-096-097-291500-
SOUTH MIDDLE TENNESSEE

CITY           SKY/WX    TMP DP  RH WIND       PRES   REMARKS
FAYETTEVILLE   SUNNY     66  50  55 N15G25    30.09R
WINCHESTER     MOSUNNY   66  59  77 N7        30.08R
SHELBYVILLE    SUNNY     66  54  63 N9        30.10R
$$

TNZ017-018-042-046-047-291500-
NORTHEAST TENNESSEE

CITY           SKY/WX    TMP DP  RH WIND       PRES   REMARKS
TRI CITIES     PTSUNNY   67  57  70 CALM      30.04S
ELIZABETHTON   MOSUNNY   66  57  72 SW5         N/A
$$

TNZ012-013-036-069-073-074-291500-
CENTRAL EAST TENNESSEE

CITY           SKY/WX    TMP DP  RH WIND       PRES   REMARKS
KNOXVILLE      PTSUNNY   68  59  73 N6        30.03R
OAK RIDGE      PTSUNNY   67  57  70 E5        30.05R
GATLINBURG     MOSUNNY   68  61  77 N3        30.03S
$$

TNZ083-085-099-291500-
SOUTHEAST TENNESSEE

CITY           SKY/WX    TMP DP  RH WIND       PRES   REMARKS
CHATTANOOGA    MOSUNNY   72  59  63 N7        30.04R
$$

SKY/WX REPORTED AS FAIR MEANS FEW OR NO CLOUDS BELOW
12 THOUSAND FEET.




USA.gov is the U.S. government's official web portal to all federal, state and local government web resources and services.